Regional Weather Roundup
Issued by NWS Sterling, VA

Home | Current Version | Previous Version | Graphics & Text | Print | Product List | Glossary On
Versions: 1 2 3 4 5 6 7 8 9 10 11 12 13 14 15 16 17 18 19 20 21 22 23 24 25 26 27 28 29 30 31 32 33 34 35 36 37 38 39 40 41 42 43 44 45 46 47 48 49 50
000
ASUS41 KLWX 261110
RWRLWX

REGIONAL WEATHER ROUNDUP
NATIONAL WEATHER SERVICE BALTIMORE MD/WASHINGTON DC
700 AM EDT TUE MAY 26 2015

Note: "FAIR" indicates few or no clouds below 12,000 feet
with no significant weather and/or obstructions to visibility.
 TC=TEMPERATURE CELSIUS

 * =Non NWS site. Station does not report precipitation (e.g. rain,
    snow, etc.), thunder, or fog.

DCZ001-MDZ009-015-VAZ040>042-051-053>054-261200-
WASHINGTON METRO

CITY           SKY/WX    TMP DP  RH WIND       PRES   REMARKS
WASHINGTON NAT PTSUNNY   70  61  73 S10       30.23R
DULLES         MOSUNNY   64  57  78 S7        30.21R
ANDREWS AFB    SUNNY     67  61  81 S15       30.22R
FT BELVOIR     SUNNY     68  61  78 VRB6      30.23R
QUANTICO       MOSUNNY   67  59  75 SW10      30.24R
COLLEGE PARK*  SUNNY     68  61  77 S5        30.22R
LEESBURG*      SUNNY     63  61  94 S5        30.23R
GAITHERSBURG*  SUNNY     64  55  72 CALM      30.26R

$$

MDZ006>007-011-014-261200-
BALTIMORE METRO

CITY           SKY/WX    TMP DP  RH WIND       PRES   REMARKS
BWI AIRPORT    PTSUNNY   65  59  81 SW3       30.22R
MD SCIENCE CTR   N/A     67  59  75 MISG      30.23R
MARTIN STATE   SUNNY     68  63  83 S7        30.23R
ANNAPOLIS      SUNNY     68  59  73 S8        30.22R
FORT MEADE*    SUNNY     57  55  94 CALM      30.24S

$$

MDZ012-015-019>023-261200-
MARYLAND EASTERN SHORE

CITY           SKY/WX    TMP DP  RH WIND       PRES   REMARKS
OCEAN CITY     SUNNY     68  62  81 SW10      30.29R
SALISBURY      SUNNY     65  63  93 S5        30.27S
BAY BRIDGE AP*   N/A    N/A N/A N/A S9        30.23S
CAMBRIDGE*     SUNNY     72  63  73 S6        30.25S
EASTON*        SUNNY     70  64  83 SW12      30.28R

$$

MDZ017>025-261200-
SOUTHERN MARYLAND

CITY           SKY/WX    TMP DP  RH WIND       PRES   REMARKS
PATUXENT RIVER MOSUNNY   67  61  81 SW9       30.26R
ST INIGOES     SUNNY     68  62  81 S13       30.26R
LEONARDTOWN*   SUNNY     66  59  77 SW7       30.27S

$$

MDZ003>005-261200-
NORTH CENTRAL MARYLAND

CITY           SKY/WX    TMP DP  RH WIND       PRES   REMARKS
FREDERICK*     SUNNY     63  61  94 NW3       30.23S
HAGERSTOWN APT SUNNY     69  56  62 S6        30.19R
WESTMINSTER*   SUNNY     64  57  77 S6        30.21S

$$

MDZ501>502-261200-
WESTERN MARYLAND

CITY           SKY/WX    TMP DP  RH WIND       PRES   REMARKS
OAKLAND*       SUNNY     63  61  94 SW8       30.26R
CUMBERLAND*    SUNNY     61  61 100 CALM      30.23S

$$

VAZ025>031-261200-
SHENANDOAH VALLEY

CITY           SKY/WX    TMP DP  RH WIND       PRES   REMARKS
WINCHESTER*    SUNNY     68  52  56 SW3       30.20R
FRONT ROYAL*   FAIR      64  55  72 S6        30.18S
LURAY*         FAIR      63  59  88 CALM      30.22R
NEW MARKET*    FAIR      59  56  89 CALM      30.22R
STAUNTON*      SUNNY     59  55  85 SW3       30.26R
WAYNESBORO*    FAIR      57  55  92 CALM      30.25R

$$

WVZ021-048>050-054>055-261200-
EASTERN WEST VIRGINIA PANHANDLE

CITY           SKY/WX    TMP DP  RH WIND       PRES   REMARKS
MARTINSBURG    SUNNY     64  57  78 S3        30.20R
PETERSBURG*    SUNNY     60  56  88 CALM      30.22R

$$

VAZ036>039-050-261200-
CENTRAL FOOTHILLS

CITY           SKY/WX    TMP DP  RH WIND       PRES   REMARKS
CHARLOTTESVILL SUNNY     63  57  81 S8        30.23R
CULPEPER*      SUNNY     63  57  81 CALM      30.23R
ORANGE*        SUNNY     63  59  88 CALM      30.26R
GORDONSVILLE*  FAIR      61  58  87 SW7       30.23R
WARRENTON*     FAIR      65  60  84 S7        30.22R

$$

VAZ055>057-261200-
NORTH AND CENTRAL PIEDMONT

CITY           SKY/WX    TMP DP  RH WIND       PRES   REMARKS
FREDERICKSBRG* SUNNY     67  61  83 S8        30.24R
STAFFORD*      SUNNY     64  58  83 CALM      30.28R

$$

NCZ024-NYZ072-PAZ021-071-VAZ022-071-261200-
OTHER REGIONAL OBSERVATIONS

CITY           SKY/WX    TMP DP  RH WIND       PRES   REMARKS
NEW YORK CITY  SUNNY     67  56  67 VRB6      30.24R
PHILADELPHIA   MOSUNNY   67  60  78 S10       30.23R
PITTSBURGH     PTSUNNY   67  61  81 S3        30.17R
ROANOKE        MOCLDY    62  58  86 CALM      30.29R
RICHMOND       MOSUNNY   66  61  84 S8        30.28R
RALEIGH        PTCLDY    67  64  90 SW7       30.30R

$$

ANZ530>537-261200-
MARINE OBSERVATIONS

STATION/POSITION TIME  TEMP    WIND        PRES
                       AIR SEA DIR/SP/G
                 (UTC) (F)     (DEG/KT/KT) (MB)
THOMAS PT LIGHT  1100   67 66  190/ 15/ 16 1024.2R
BALT KEY BRIDGE  1000   67     180/ 12/ 14 1022.4F
LEWISETTA        1000   68 71              1024.3R
SOLOMONS ISLAND  1000      69                N/A
PINEY POINT      1000          240/ 13/ 15   N/A

$$



USA.gov is the U.S. government's official web portal to all federal, state and local government web resources and services.